[[{"header":{"parameterUnit":"m.s-1","parameterCategory":1,"la1":30.2991,"la2":30.254,"lo1":-89.0895,"lo2":-89.0444,"dy":0.0017,"dx":0.0017,"nx":28,"ny":28,"refTime":"2024-10-20T21:00:00:Z","depth":0,"parameterNumber":2,"parameterNumberName":"U-component_of_WINDS"},"data":[0,0,0,0,0,0,0,0,0,0,0,0,0,0,0,0,0,0,0,0,0,0,0,0,0,0,0,0,0,0,0,0,0,0,0,0,0,0,0,0,0,0,0,0,0,0,0,0,0,0,0,0,0,0,0,0,0,0,-2.8549,-2.8549,0,-2.8578,-2.8578,-2.8579,-2.8497,-2.8494,-2.8492,-2.849,-2.8521,-2.8524,-2.8527,0,0,0,0,0,0,0,0,0,0,0,0,0,-2.8425,-2.8427,-2.8549,-2.8549,-2.855,-2.8578,-2.8578,-2.8579,-2.8497,-2.8494,-2.8491,-2.8488,-2.852,-2.8524,-2.8527,0,0,0,0,0,0,0,0,0,0,0,0,0,-2.8469,-2.8428,-2.8549,-2.8513,-2.851,-2.8578,-2.8578,-2.8579,-2.8498,-2.8494,-2.8491,-2.8487,-2.8519,-2.8523,-2.8528,-2.8633,0,0,-2.8543,-2.8545,0,0,0,0,0,0,0,0,-2.8466,-2.8473,-2.8518,-2.8515,-2.8512,-2.853,-2.8546,-2.8597,-2.8499,-2.8503,-2.849,-2.8485,-2.8527,-2.8531,-2.8545,-2.8635,-2.8636,-2.8543,-2.8546,-2.8548,-2.8549,0,0,0,0,0,0,0,-2.8463,-2.8472,-2.8561,-2.8518,-2.8515,-2.8495,-2.8497,-2.8555,-2.8536,-2.8502,-2.8496,-2.8501,-2.8525,-2.854,-2.8545,-2.8637,-2.8543,-2.8547,-2.855,-2.8552,-2.8815,-2.8819,0,0,0,0,0,0,-2.8465,-2.847,-2.856,-2.8561,-2.8479,-2.8501,-2.8503,-2.8528,-2.8535,-2.8532,-2.8504,-2.8497,-2.8534,-2.8539,-2.8546,-2.8671,-2.8548,-2.8552,-2.8555,-2.8811,-2.8816,-2.8821,0,0,0,0,0,0,-2.8463,-2.8474,-2.8558,-2.8514,-2.8523,-2.8507,-2.8536,-2.8531,-2.8546,-2.8536,-2.8532,-2.8523,-2.8531,-2.8539,-2.8612,-2.867,-2.8555,-2.8559,-2.8806,-2.8813,-2.8818,-2.8921,0,0,0,0,0,0,-2.8459,-2.8473,-2.8513,-2.8515,-2.8526,-2.8625,-2.8539,-2.8534,-2.8554,-2.8545,-2.8553,-2.8551,-2.8529,-2.8605,-2.8617,-2.8675,-2.8563,-2.8801,-2.8809,-2.8816,-2.8912,-2.893,-2.8945,0,0,0,0,0,-2.8455,-2.8541,-2.8515,-2.8527,-2.8575,-2.8628,-2.8634,-2.8606,-2.8559,-2.8599,-2.8593,-2.8551,-2.8662,-2.8614,-2.8626,-2.8686,-2.8797,-2.8807,-2.8816,-2.8905,-2.8926,-2.8944,0,0,0,0,0,0,-2.8546,-2.8541,-2.8512,-2.8601,-2.8616,-2.8614,-2.8664,-2.863,-2.8658,-2.8649,-2.8613,-2.8616,-2.8696,-2.8698,-2.8644,-2.8789,-2.8721,-2.8734,-2.8785,-2.8805,-2.8821,-2.882,-2.8567,0,0,0,0,0,-2.8577,-2.862,-2.8612,-2.8691,-2.87,-2.8681,-2.8703,-2.868,-2.8694,-2.87,-2.8699,-2.8714,-2.8752,-2.8778,-2.8813,-2.8911,-2.8912,-2.8959,-2.8975,-2.8988,-2.9,-2.9053,-2.9074,-2.8851,-2.8851,-2.8851,0,0,-2.864,-2.8642,-2.8672,-2.871,-2.8718,-2.8765,-2.8687,-2.8738,-2.8773,-2.8708,-2.8777,-2.8777,-2.8792,-2.8878,-2.8916,-2.8882,-2.9061,-2.9,-2.9011,-2.9015,-2.9065,-2.9086,-2.9105,-2.8857,-2.8856,-2.8855,0,0,-2.878,-2.8785,-2.8852,-2.8862,-2.8876,-2.8862,-2.8878,-2.8882,-2.8879,-2.8948,-2.8901,-2.894,-2.9007,-2.902,-2.9035,-2.9179,-2.9142,-2.9191,-2.9277,-2.9329,-2.9347,-2.9362,-2.9415,-2.9435,-2.9202,-2.9202,-2.9202,0,-2.8857,-2.8924,-2.8891,-2.8947,-2.8965,-2.8907,-2.8976,-2.8987,-2.9012,-2.9026,-2.8987,-2.907,-2.9075,-2.9165,-2.92,-2.9214,-2.9232,-2.9191,-2.9347,-2.9362,-2.9376,-2.9426,-2.9446,-2.9208,-2.9208,-2.9207,-2.9206,0,-2.902,-2.9067,-2.9119,-2.9145,-2.9169,-2.923,-2.9207,-2.9236,-2.921,-2.9201,-2.9272,-2.9277,-2.9312,-2.9331,-2.9307,-2.9417,-2.9396,-2.9353,-2.9285,-2.9404,-2.9451,-2.9469,-2.9217,-2.9215,-2.9213,-2.9212,0,0,-2.922,-2.9225,-2.9245,-2.9256,-2.9266,-2.9302,-2.9361,-2.9395,-2.9421,-2.9439,-2.9489,-2.9546,-2.9506,-2.9523,-2.95,-2.9545,-2.9661,-2.9496,-2.9496,-2.9529,-2.9785,-2.9819,-2.9842,-2.9635,-2.9639,-2.9641,-2.9784,0,-2.9359,-2.946,-2.9431,-2.9533,-2.9577,-2.9522,-2.9573,-2.9586,-2.9579,-2.9615,-2.9606,-2.9648,-2.9591,-2.9602,-2.9644,-2.9638,-2.9712,-2.9627,-2.9683,-2.9685,-2.9683,-2.9866,-2.9902,-3.0037,-2.9802,-2.9805,-2.9807,0,-2.9535,-2.956,-2.9666,-2.967,-2.9687,-2.9734,-2.9763,-2.9798,-2.9811,-2.9802,-2.9822,-2.9789,-2.9847,-2.9777,-2.9858,-2.9801,-2.9821,-2.9822,-2.9826,-2.9832,-2.9755,-2.9879,-3.0078,-3.01,-2.9835,-2.9833,-2.9831,0,-2.9673,-2.9733,-2.9804,-2.9815,-2.9821,-2.9855,-2.9859,-2.9868,-2.989,-2.9915,-2.9929,-2.9961,-2.9979,-3.0004,-2.9981,-2.9932,-3.0066,-2.9994,-3.0062,-3.0063,-3.0095,-3.0094,-3.0303,-3.0105,-3.0104,-3.0104,-3.0104,0,-2.9832,-2.99,-2.9866,-2.9911,-2.9985,-2.9951,-3.0026,-3.0023,-3.0032,-3.0075,-3.0028,-3.007,-3.0036,-3.0075,-3.0057,-3.0127,-3.0135,-3.0131,-3.0126,-3.0137,-3.0138,-3.0151,-3.0142,-3.0109,-3.0108,-3.0107,-3.0106,0,-3.0,-2.998,-3.0055,-3.0053,-3.0054,-3.011,-3.0108,-3.015,-3.0138,-3.0194,-3.0205,-3.0187,-3.0231,-3.0209,-3.0254,-3.0242,-3.0334,-3.0315,-3.033,-3.0326,-3.0396,-3.0391,-3.0624,-3.0653,-3.0434,-3.0436,-3.0438,0,-3.0105,-3.0155,-3.0159,-3.0185,-3.0192,-3.0233,-3.0256,-3.0224,-3.0249,-3.0267,-3.0307,-3.0346,-3.0376,-3.0447,-3.0439,-3.0473,-3.0456,-3.0535,-3.0461,-3.0471,-3.046,-3.0459,-3.0464,-3.0551,-3.0554,-3.0556,-3.0558,0,-3.0293,-3.028,-3.0314,-3.0345,-3.0373,-3.0396,-3.0414,-3.0438,-3.0406,-3.0437,-3.0481,-3.0504,-3.0549,-3.0589,-3.0619,-3.0623,-3.0587,-3.0581,-3.0599,-3.0612,-3.0619,-3.0618,-3.0373,-3.0576,-3.0574,-3.0573,-3.0572,-3.0571,-3.0434,-3.0476,-3.0486,-3.0526,-3.0536,-3.0555,-3.0594,-3.0587,-3.0622,-3.0657,-3.0636,-3.0687,-3.0699,-3.0735,-3.0744,-3.0784,-3.0752,-3.0778,-3.0785,-3.0792,-3.0803,-3.061,-3.0789,-3.0788,-3.0788,-3.0787,-3.0787,0,-3.0621,-3.0625,-3.0661,-3.0689,-3.072,-3.068,-3.0699,-3.0728,-3.0774,-3.0787,-3.0817,-3.0868,-3.0906,-3.09,-3.0935,-3.0969,-3.0953,-3.0979,-3.0978,-3.098,-3.0828,-3.081,-3.0992,-3.0992,-3.0991,-3.0991,-3.0991,-3.0991,-3.0723,-3.0794,-3.0783,-3.0859,-3.0861,-3.0911,-3.0925,-3.0942,-3.0953,-3.1011,-3.1043,-3.1038,-3.1044,-3.1079,-3.1113,-3.111,-3.1126,-3.116,-3.1151,-3.101,-3.099,-3.0971,-3.0954,-3.1163,-3.1163,-3.1299,-3.1301,-3.1302]},{"header":{"parameterUnit":"m.s-1","parameterCategory":1,"la1":30.2991,"la2":30.254,"lo1":-89.0895,"lo2":-89.0444,"dy":0.0017,"dx":0.0017,"nx":28,"ny":28,"refTime":"2024-10-20T21:00:00:Z","depth":0,"parameterNumber":3,"parameterNumberName":"V-component_of_WINDS"},"data":[0,0,0,0,0,0,0,0,0,0,0,0,0,0,0,0,0,0,0,0,0,0,0,0,0,0,0,0,0,0,0,0,0,0,0,0,0,0,0,0,0,0,0,0,0,0,0,0,0,0,0,0,0,0,0,0,0,0,-3.7516,-3.7516,0,-3.7538,-3.7539,-3.7539,-3.7485,-3.7484,-3.7482,-3.748,-3.7501,-3.7503,-3.7505,0,0,0,0,0,0,0,0,0,0,0,0,0,-3.7423,-3.7425,-3.7516,-3.7516,-3.7516,-3.7538,-3.7539,-3.7539,-3.7486,-3.7484,-3.7482,-3.748,-3.75,-3.7503,-3.7506,0,0,0,0,0,0,0,0,0,0,0,0,0,-3.7456,-3.7426,-3.7516,-3.7492,-3.7491,-3.7538,-3.7539,-3.7539,-3.7486,-3.7484,-3.7481,-3.7479,-3.75,-3.7503,-3.7506,-3.7576,0,0,-3.7516,-3.7517,0,0,0,0,0,0,0,0,-3.7454,-3.746,-3.7495,-3.7494,-3.7492,-3.7506,-3.7514,-3.7551,-3.7487,-3.7488,-3.748,-3.7477,-3.7505,-3.7507,-3.7517,-3.7577,-3.7578,-3.7516,-3.7518,-3.7519,-3.752,0,0,0,0,0,0,0,-3.7452,-3.7458,-3.7524,-3.7496,-3.7494,-3.748,-3.7482,-3.752,-3.751,-3.7487,-3.7484,-3.7487,-3.7503,-3.7514,-3.7517,-3.7579,-3.7516,-3.7519,-3.7521,-3.7522,-3.7697,-3.77,0,0,0,0,0,0,-3.7453,-3.7457,-3.7524,-3.7525,-3.7467,-3.7484,-3.7486,-3.7504,-3.751,-3.7508,-3.7489,-3.7485,-3.751,-3.7514,-3.7518,-3.7601,-3.7519,-3.7522,-3.7524,-3.7695,-3.7698,-3.7701,0,0,0,0,0,0,-3.7451,-3.746,-3.7523,-3.749,-3.7497,-3.7488,-3.7509,-3.7506,-3.7517,-3.7511,-3.7509,-3.7503,-3.7508,-3.7513,-3.7562,-3.7601,-3.7524,-3.7527,-3.7691,-3.7696,-3.7699,-3.7767,0,0,0,0,0,0,-3.7449,-3.7459,-3.7487,-3.7491,-3.7499,-3.7568,-3.7512,-3.7508,-3.7523,-3.7517,-3.7523,-3.7521,-3.7507,-3.7558,-3.7566,-3.7604,-3.7529,-3.7688,-3.7693,-3.7698,-3.7762,-3.7773,-3.7783,0,0,0,0,0,-3.7446,-3.7505,-3.7489,-3.7497,-3.7533,-3.7571,-3.7575,-3.7557,-3.7526,-3.7553,-3.7549,-3.7521,-3.7595,-3.7563,-3.7572,-3.7611,-3.7685,-3.7692,-3.7698,-3.7757,-3.7771,-3.7783,0,0,0,0,0,0,-3.7504,-3.7505,-3.7487,-3.7549,-3.756,-3.7561,-3.7595,-3.7573,-3.7593,-3.7586,-3.7563,-3.7565,-3.7618,-3.7619,-3.7584,-3.7679,-3.7635,-3.7643,-3.7677,-3.769,-3.7701,-3.77,-3.7532,0,0,0,0,0,-3.7525,-3.7556,-3.7554,-3.7609,-3.7616,-3.7605,-3.762,-3.7606,-3.7616,-3.762,-3.762,-3.763,-3.7656,-3.7673,-3.7696,-3.7761,-3.7761,-3.7792,-3.7803,-3.7812,-3.7819,-3.7854,-3.7867,-3.7721,-3.7721,-3.7721,0,0,-3.7567,-3.7571,-3.7592,-3.7621,-3.7628,-3.766,-3.7609,-3.7645,-3.7668,-3.7625,-3.7672,-3.7672,-3.7682,-3.7739,-3.7765,-3.7742,-3.786,-3.782,-3.7827,-3.783,-3.7862,-3.7875,-3.7888,-3.7725,-3.7725,-3.7724,0,0,-3.766,-3.7666,-3.7713,-3.7721,-3.7732,-3.7724,-3.7735,-3.774,-3.7739,-3.7785,-3.7754,-3.778,-3.7825,-3.7833,-3.7843,-3.7939,-3.7913,-3.7947,-3.8003,-3.8037,-3.8049,-3.8059,-3.8093,-3.8105,-3.7954,-3.7954,-3.7954,0,-3.771,-3.7758,-3.7739,-3.7777,-3.7791,-3.7754,-3.78,-3.7809,-3.7827,-3.7837,-3.7811,-3.7866,-3.787,-3.7929,-3.7952,-3.7962,-3.7973,-3.7946,-3.8049,-3.8058,-3.8068,-3.81,-3.8113,-3.7958,-3.7958,-3.7957,-3.7957,0,-3.782,-3.7853,-3.7889,-3.7909,-3.7926,-3.7968,-3.7954,-3.7974,-3.7957,-3.7952,-3.7999,-3.8003,-3.8026,-3.8039,-3.8023,-3.8095,-3.8081,-3.8053,-3.8007,-3.8086,-3.8116,-3.8128,-3.7964,-3.7962,-3.7961,-3.796,0,0,-3.7951,-3.7959,-3.7973,-3.7981,-3.799,-3.8015,-3.8055,-3.8079,-3.8096,-3.8109,-3.8142,-3.818,-3.8154,-3.8165,-3.815,-3.8179,-3.8255,-3.8147,-3.8147,-3.8167,-3.8335,-3.8356,-3.8371,-3.8238,-3.824,-3.8242,-3.8334,0,-3.8043,-3.8113,-3.8096,-3.8165,-3.8195,-3.8161,-3.8195,-3.8204,-3.82,-3.8224,-3.8219,-3.8247,-3.821,-3.8217,-3.8244,-3.824,-3.8288,-3.8233,-3.8267,-3.8269,-3.8267,-3.8387,-3.841,-3.8496,-3.8345,-3.8347,-3.8349,0,-3.816,-3.8179,-3.8251,-3.8255,-3.8267,-3.8299,-3.8319,-3.8343,-3.8352,-3.8347,-3.836,-3.8338,-3.8377,-3.8331,-3.8383,-3.8346,-3.8359,-3.8359,-3.8362,-3.8365,-3.8314,-3.8393,-3.8524,-3.8537,-3.8367,-3.8365,-3.8364,0,-3.8249,-3.8292,-3.8341,-3.8349,-3.8355,-3.8378,-3.8381,-3.8388,-3.8403,-3.842,-3.8429,-3.845,-3.8462,-3.8478,-3.8463,-3.8431,-3.8518,-3.847,-3.8514,-3.8515,-3.8534,-3.8533,-3.8669,-3.8542,-3.8542,-3.8542,-3.8541,0,-3.8354,-3.8399,-3.8381,-3.8411,-3.846,-3.844,-3.8489,-3.8488,-3.8495,-3.8523,-3.8494,-3.8521,-3.8499,-3.8524,-3.8512,-3.8557,-3.8562,-3.8559,-3.8555,-3.8562,-3.8562,-3.857,-3.8564,-3.8545,-3.8544,-3.8544,-3.8543,0,-3.8462,-3.8451,-3.8502,-3.8504,-3.8505,-3.8542,-3.8543,-3.857,-3.8563,-3.86,-3.8607,-3.8597,-3.8624,-3.8611,-3.8639,-3.8631,-3.869,-3.8678,-3.8687,-3.8684,-3.8728,-3.8725,-3.8874,-3.8893,-3.8754,-3.8755,-3.8756,0,-3.853,-3.8564,-3.857,-3.8587,-3.8593,-3.8621,-3.8636,-3.8617,-3.8634,-3.8647,-3.8673,-3.8698,-3.8718,-3.8764,-3.8758,-3.878,-3.8768,-3.8819,-3.8771,-3.8777,-3.8769,-3.8768,-3.8771,-3.8829,-3.8831,-3.8832,-3.8833,0,-3.8652,-3.8645,-3.8668,-3.869,-3.8709,-3.8725,-3.8739,-3.8754,-3.8736,-3.8756,-3.8785,-3.88,-3.8829,-3.8855,-3.8873,-3.8876,-3.8852,-3.8848,-3.8859,-3.8867,-3.8871,-3.887,-3.8714,-3.8845,-3.8844,-3.8843,-3.8842,-3.8842,-3.8742,-3.8771,-3.8779,-3.8806,-3.8814,-3.8828,-3.8853,-3.885,-3.8874,-3.8897,-3.8884,-3.8917,-3.8924,-3.8947,-3.8953,-3.8978,-3.8958,-3.8974,-3.8978,-3.8983,-3.8989,-3.8867,-3.8981,-3.8981,-3.8981,-3.898,-3.898,0,-3.8862,-3.8866,-3.8891,-3.8911,-3.8932,-3.8908,-3.8921,-3.894,-3.8971,-3.898,-3.9,-3.9032,-3.9057,-3.9053,-3.9075,-3.9096,-3.9085,-3.9102,-3.9101,-3.9102,-3.9006,-3.8994,-3.911,-3.911,-3.911,-3.911,-3.911,-3.911,-3.8928,-3.8975,-3.8969,-3.902,-3.9023,-3.9056,-3.9066,-3.9077,-3.9084,-3.9122,-3.9143,-3.914,-3.9144,-3.9166,-3.9187,-3.9186,-3.9195,-3.9217,-3.9211,-3.9121,-3.9108,-3.9096,-3.9085,-3.9219,-3.9219,-3.9305,-3.9305,-3.9306]}]]